Theta_e
346 342 343 339 340 337 336 334 336 336 334 334 332 331 331 330 330 330 331 331 331 331 330 330 329 329 328 327 326 326 326 326 326 325 325 325 326 326 326 325 325 325 325
347 344 339 338 337 335 334 333 335 333 333 332 332 332 330 329 329 329 329 330 330 330 329 329 327 327 327 327 326 326 325 325 325 324 324 324 324 324 324 324 324 324 323
346 344 339 338 337 336 336 335 334 337 333 333 332 332 331 331 327 328 327 327 329 329 329 329 328 327 326 326 326 325 324 324 324 323 323 323 323 323 323 323 323 323 323
343 342 337 337 335 336 334 331 329 332 331 331 333 333 331 331 329 329 328 328 328 326 328 328 328 327 326 326 325 324 323 323 322 322 321 321 321 321 322 322 322 322 321
340 340 334 337 338 334 334 332 330 332 331 330 330 332 333 331 331 328 329 329 330 329 329 329 328 328 327 325 325 324 322 321 319 318 319 319 319 320 321 321 321 320 320
339 337 331 337 335 333 332 330 332 332 331 330 327 329 331 332 332 331 329 329 330 330 330 331 330 329 329 328 326 325 324 322 319 317 316 316 317 318 319 320 319 319 319
335 332 332 336 335 333 332 333 331 332 329 331 328 326 329 332 332 331 331 330 330 329 330 330 330 329 329 330 329 327 326 326 324 321 318 316 316 317 319 320 320 319 319
330 331 337 336 336 331 333 333 332 327 328 330 325 323 319 324 327 330 331 330 330 330 329 330 330 330 330 329 331 329 329 328 327 325 323 320 318 319 320 319 319 318 318
334 338 338 337 336 334 332 334 333 331 324 327 330 323 318 316 323 327 329 329 331 330 330 330 330 330 332 330 330 330 331 330 329 327 326 324 322 322 321 318 318 317 318
340 338 339 338 337 333 332 331 330 330 330 322 325 326 327 325 318 315 324 326 330 330 332 331 330 331 331 329 331 332 332 332 329 328 326 326 326 324 321 317 317 317 317
341 339 339 339 337 334 334 332 330 331 327 323 321 321 324 322 323 318 313 319 324 327 329 331 331 330 332 332 331 330 330 329 329 328 327 326 326 324 322 318 317 317 317
342 341 340 339 339 337 336 334 334 333 330 327 324 323 320 318 317 317 315 317 318 321 326 329 330 329 328 328 330 331 329 328 327 327 327 326 325 325 323 319 318 317 317
339 341 341 339 337 338 337 336 334 333 331 327 329 322 322 321 321 320 317 315 316 319 321 323 324 325 324 325 326 329 327 325 324 323 324 325 325 324 322 319 318 317 317
340 343 342 340 338 337 336 337 334 332 332 328 327 327 321 323 321 318 317 315 314 314 318 322 323 324 324 324 325 323 326 325 323 323 322 323 324 323 322 320 317 316 315
342 343 342 341 339 337 336 336 333 333 331 328 326 326 323 320 320 321 319 319 314 310 312 322 319 327 324 325 325 325 325 321 319 321 321 322 322 322 322 320 319 316 315
345 343 342 341 340 337 337 336 335 335 330 327 324 325 325 321 322 322 321 319 318 314 310 319 320 325 326 323 323 324 324 317 320 317 318 318 319 318 317 316 317 316 315
343 342 341 339 338 337 335 334 334 334 332 330 328 323 323 322 321 319 316 318 317 317 311 316 322 326 326 324 322 322 323 321 319 315 313 312 311 312 313 314 315 314 314
344 342 340 340 337 337 336 333 328 327 327 328 327 325 321 320 323 321 320 317 317 319 316 314 317 320 322 321 323 323 315 313 315 312 311 310 310 311 311 312 312 312 312
343 343 340 338 338 337 334 334 333 332 328 326 327 321 321 323 322 321 318 319 314 318 318 314 312 316 316 318 312 312 314 313 311 314 311 310 309 310 311 310 311 311 310
339 339 339 337 335 336 335 333 332 331 331 328 325 322 320 321 320 319 321 320 318 317 315 314 314 313 312 309 309 306 305 309 311 313 311 307 310 311 310 309 310 311 310
336 336 335 335 335 334 334 333 332 331 329 328 327 326 325 321 320 318 323 322 318 313 312 312 309 312 307 305 307 306 306 310 313 311 310 311 312 312 312 311 311 311 308
334 334 332 331 331 331 315 315 322 328 328 327 327 328 328 323 321 317 316 316 317 313 312 310 309 308 309 311 308 306 306 310 303 315 312 308 312 311 311 312 307 306 307
330 328 326 325 325 327 312 308 310 326 327 327 327 328 327 326 324 325 318 314 314 313 314 314 310 309 310 308 308 306 311 311 307 308 309 308 311 309 311 311 307 306 306
324 324 323 322 325 323 311 307 307 317 324 326 325 328 327 320 319 319 320 321 320 318 314 314 314 313 313 311 310 310 312 314 310 310 314 306 309 307 309 311 307 307 307
324 324 324 325 324 324 309 305 309 320 319 321 322 324 326 324 312 307 315 316 318 317 314 311 310 308 305 307 310 314 311 304 303 307 312 309 307 307 308 308 310 306 306
318 316 316 319 316 320 310 305 310 318 317 316 320 322 310 314 306 303 312 318 315 315 315 311 309 307 306 308 307 315 309 305 306 306 311 308 305 306 303 308 309 309 308
Wind_Speed
1 3 1 3 2 3 3 5 4 3 4 4 6 6 6 7 5 5 8 11 12 13 13 14 13 13 14 14 14 15 15 15 14 14 14 13 13 13 14 13 13 13 13
2 1 3 3 4 4 4 6 4 5 3 5 6 6 5 6 6 4 8 9 10 11 12 13 13 13 14 14 14 14 14 13 13 12 12 12 11 11 12 12 12 12 12
3 3 3 3 2 4 4 4 4 3 3 3 5 6 5 4 5 5 4 8 9 9 10 10 11 11 11 11 12 12 12 12 12 12 11 11 10 10 10 10 10 10 10
5 5 3 2 5 5 5 5 6 5 4 4 3 3 4 5 5 5 3 4 5 8 7 8 9 9 9 9 9 8 8 8 8 8 8 8 8 8 10 11 11 12 13
4 4 2 4 5 5 5 4 5 5 5 5 5 4 4 5 5 5 5 5 5 4 6 9 7 7 7 7 7 6 5 4 3 5 6 6 6 7 8 10 10 11 12
3 3 4 3 6 5 4 7 4 5 5 6 6 7 5 4 5 5 7 6 7 7 6 8 9 9 10 8 8 7 6 5 4 3 2 2 3 5 7 8 9 10 11
4 3 7 5 6 4 6 5 5 6 6 5 6 5 5 7 8 8 8 8 9 9 8 8 6 6 10 14 11 10 10 9 8 6 4 2 1 3 5 8 7 9 10
5 6 7 4 4 4 5 6 6 5 7 5 7 6 6 8 10 11 9 9 10 9 10 10 10 8 7 9 14 16 13 12 11 10 9 7 5 5 6 8 8 8 9
9 10 7 6 5 6 5 6 7 8 6 7 8 6 5 5 2 9 11 10 10 9 10 11 11 11 10 9 5 13 16 15 14 11 10 11 10 9 7 6 7 7 8
9 8 8 7 7 6 4 6 6 6 7 7 7 9 11 8 4 4 5 8 10 11 11 10 11 11 11 9 13 11 7 17 16 13 12 13 13 11 8 5 6 7 8
9 9 9 8 8 8 7 6 5 7 7 9 7 7 8 9 9 9 9 7 7 9 10 10 11 9 12 11 11 12 13 12 11 13 14 14 13 11 9 6 6 8 8
6 8 9 8 9 9 8 8 7 8 8 7 8 7 7 6 5 7 10 10 7 6 6 7 8 8 8 8 10 6 9 11 11 11 11 13 14 14 11 9 8 8 9
5 5 7 7 8 9 9 8 8 8 9 9 9 7 7 7 8 7 7 9 9 5 6 7 6 6 6 6 7 10 12 10 11 10 9 10 12 13 13 11 10 9 10
4 4 7 7 9 9 9 9 8 9 9 9 11 10 6 4 6 7 9 7 9 9 8 8 5 6 5 5 7 6 8 9 2 1 5 9 10 11 12 12 11 10 10
6 7 8 8 8 9 10 10 9 10 9 9 8 10 9 8 7 7 7 8 9 11 8 8 8 7 5 5 5 8 6 11 2 1 4 7 11 9 9 8 9 9 10
8 8 8 9 8 9 10 10 11 10 11 9 9 11 9 6 7 9 7 8 10 10 8 6 6 6 7 6 7 7 5 1 5 3 3 2 3 2 4 6 8 8 10
8 10 11 10 10 11 10 8 10 12 12 12 10 12 12 9 9 6 5 9 7 7 8 10 3 6 8 7 6 6 6 6 2 8 4 3 2 2 5 6 6 7 9
9 10 11 11 11 12 11 11 11 10 10 12 13 13 13 10 13 7 8 8 11 8 5 9 6 8 7 4 11 7 4 2 0 8 6 5 4 4 5 6 7 9 10
9 11 11 11 12 11 9 10 13 13 12 12 8 9 11 14 12 10 8 11 7 10 7 7 3 0 3 8 2 3 5 3 4 11 10 10 8 7 7 7 8 8 9
9 9 11 11 10 10 10 9 10 11 11 11 12 11 11 14 14 11 11 13 7 8 7 7 8 4 2 2 3 5 5 5 8 7 2 3 5 7 12 10 10 9 7
7 7 8 9 9 9 8 9 9 10 10 11 13 14 13 13 15 14 10 15 12 9 9 9 8 8 6 5 11 4 5 7 8 6 10 5 7 8 9 13 7 9 3
7 7 9 9 8 7 2 7 9 9 11 10 11 12 12 15 18 18 19 18 15 13 13 11 11 10 13 9 4 5 6 9 8 6 7 6 7 7 6 4 9 4 3
7 7 7 8 8 9 2 7 6 9 10 11 11 11 11 8 12 13 18 22 22 20 19 13 12 13 10 10 8 7 9 9 6 3 6 10 8 6 4 5 10 7 4
7 7 7 6 9 10 5 10 5 6 10 11 11 13 12 7 9 12 13 13 13 14 15 13 13 11 10 10 10 10 11 9 3 8 9 8 5 5 3 3 13 9 8
9 10 10 13 11 11 9 9 6 11 11 12 12 11 11 10 8 9 10 15 10 10 12 16 14 11 11 10 10 8 8 6 5 8 10 10 3 5 3 3 8 13 12
9 10 11 12 13 13 11 11 7 9 12 11 13 16 9 12 8 4 9 14 11 10 9 8 8 7 9 9 12 10 9 10 10 8 8 9 6 4 4 5 4 7 8
Wind_Direction
251 235 154 240 195 168 156 103 192 129 136 118 79 75 75 78 91 88 100 95 97 99 99 100 98 99 100 98 97 92 89 87 83 80 78 75 71 67 64 60 54 47 38
209 247 203 199 188 196 159 179 97 217 142 123 102 85 74 80 67 106 121 113 105 102 101 102 103 105 104 103 100 98 94 88 86 83 81 78 72 67 61 56 51 45 41
199 281 242 225 200 195 182 166 219 212 179 159 113 128 118 89 75 73 90 121 131 117 111 107 105 105 107 105 101 96 91 84 77 72 68 65 61 54 48 45 42 37 30
231 232 249 207 202 199 195 162 238 208 203 190 147 167 130 155 144 146 148 123 144 133 143 130 123 124 121 122 120 115 104 90 76 65 58 58 58 53 44 36 32 27 20
227 272 245 225 200 212 204 171 218 237 183 223 193 203 196 180 174 176 157 192 155 167 156 157 162 162 157 157 153 153 145 126 90 67 60 53 46 38 29 26 19 13 10
204 199 230 229 229 227 191 215 247 195 240 217 239 180 222 210 204 202 203 211 186 194 210 194 176 191 195 197 195 196 196 185 174 161 106 52 26 14 6 6 3 0 1
121 205 246 204 230 234 245 198 218 215 219 235 247 232 218 217 228 227 212 213 204 210 211 205 237 192 185 200 214 217 217 214 212 207 205 215 274 326 334 326 339 349 350
196 214 252 235 220 209 211 224 222 218 227 212 244 253 241 198 217 224 230 218 219 216 215 219 223 230 259 197 194 208 222 228 224 217 216 226 240 270 297 331 338 338 339
208 219 218 250 196 253 207 207 202 221 226 193 233 273 243 246 232 183 213 238 225 223 228 224 224 229 229 248 212 194 214 228 233 225 239 227 232 252 280 321 326 327 329
216 213 218 219 219 232 226 208 218 245 233 246 191 228 259 297 275 242 196 217 233 231 235 243 221 228 238 234 242 263 205 214 228 232 231 238 248 244 263 292 312 314 314
219 218 216 222 221 224 205 244 213 222 221 256 249 236 219 228 228 264 275 198 208 232 227 220 249 233 214 232 243 233 210 212 219 236 247 247 247 247 247 263 287 297 292
205 228 233 230 225 225 218 218 227 225 242 248 256 257 253 238 233 232 246 255 262 210 224 220 215 237 250 245 231 278 184 192 213 234 245 246 246 242 237 248 262 282 287
231 221 226 239 231 230 239 228 214 231 220 231 229 246 238 253 252 267 283 267 269 237 187 231 230 234 247 250 258 197 177 198 223 234 252 251 240 237 235 239 249 267 275
263 235 226 236 228 234 228 232 236 233 225 225 229 235 246 250 226 240 255 269 258 247 236 238 205 235 230 245 78 145 180 173 183 336 292 274 246 225 227 233 243 254 262
255 229 239 233 230 230 231 236 237 234 236 226 218 231 239 240 243 236 234 248 252 264 257 186 228 188 244 188 174 218 229 129 158 349 281 261 239 228 221 229 243 248 255
245 254 242 236 237 234 228 228 245 236 230 232 231 224 234 235 225 230 242 231 236 256 269 277 212 218 204 221 158 243 242 171 161 202 231 230 219 211 236 248 244 253 260
249 245 245 231 231 231 227 237 245 257 226 235 235 228 227 227 238 237 225 234 244 238 246 252 305 156 205 231 232 211 242 263 201 137 147 162 177 237 259 268 271 271 271
253 250 253 249 245 233 234 226 228 232 253 243 235 233 229 226 226 240 229 215 230 240 260 254 246 218 199 200 238 224 216 230 100 165 174 213 218 241 256 263 259 258 261
263 258 255 246 250 254 248 234 242 240 236 242 242 229 237 232 229 235 221 237 223 228 231 244 283 48 189 243 100 229 210 225 246 194 191 208 200 221 246 264 265 262 266
289 276 271 276 270 266 263 252 246 249 248 246 241 229 229 233 228 225 234 230 218 222 214 223 234 229 151 151 209 205 205 216 243 249 321 272 189 208 228 234 242 248 254
296 294 289 289 285 286 278 292 278 269 263 248 245 239 236 233 225 214 225 233 218 207 213 218 222 216 200 179 209 178 218 235 200 236 245 224 223 224 207 218 219 208 251
336 337 323 309 312 298 79 240 256 284 277 272 268 257 237 225 231 227 224 227 214 212 221 214 222 220 216 215 164 183 211 217 229 232 230 267 249 253 276 264 99 86 284
343 326 307 317 323 306 0 270 257 281 287 288 273 267 263 245 234 249 231 229 227 226 226 217 219 212 203 183 166 202 224 214 208 192 212 242 247 265 268 141 148 177 217
330 321 310 288 296 289 305 287 253 279 278 275 280 277 274 249 249 257 260 252 229 228 225 227 222 213 192 172 182 192 207 214 232 234 213 258 263 254 233 148 159 183 213
320 315 304 298 297 299 296 288 257 293 277 276 273 256 242 256 266 267 269 264 249 222 214 216 219 179 168 173 186 194 172 171 216 220 202 240 253 261 231 198 149 183 208
308 323 316 307 301 299 294 267 270 285 282 291 280 250 216 255 237 214 258 261 248 232 201 181 171 178 173 180 164 199 172 196 220 185 182 219 226 229 222 200 207 165 211